Simultaneous Nadir Overpasses (SNOs) Predictions

Prediction of SNOs between GOES-16 and AQUA Satellite Orbit:

Table of predicted SNOs for the next 14.0 days since TLE Epoch: 8/20/2025
Index Date Time (GOES-16) GOES-16 Lat,Lon AQUA Lat,Lon Distance(km) Time Diff (sec)
1 08/21/2025 09:56:19 -0.09,-104.71 0.18,-106.09 156.83 80
2 08/23/2025 09:33:08 -0.09,-104.70 -0.88,-101.06 414.31 80
3 08/23/2025 21:52:22 0.09,-104.71 -0.11,-105.71 114.23 80
4 08/25/2025 21:34:32 0.09,-104.71 0.98,-100.69 457.93 80
5 08/26/2025 09:53:37 -0.09,-104.71 0.01,-105.31 67.23 80
6 08/28/2025 21:49:40 0.10,-104.71 0.07,-104.93 23.95 80
7 08/31/2025 09:48:13 -0.10,-104.71 -0.13,-104.50 23.63 80
8 09/02/2025 21:49:35 0.11,-104.71 0.23,-104.12 66.25 80
9 09/03/2025 10:08:41 -0.11,-104.71 0.74,-108.74 457.97 80
